Retour au catalogue

STARLINK-4453

ActifCommunicationsSSO
NORAD 53497·PAYLOAD·🇺🇸 United States

Lancé Aug 12, 2022 depuis Vandenberg Space Force Base

Loading…

Prochains Passages (prochaines 24 heures)

TLE

FraisSource: CelesTrak SupGP

Époque: Sep 15, 2026, 02:12 UTC

1 53497C 22099AJ  26258.09215278  .00739230  00000+0  39546-1 0  2586
2 53497  97.2855  12.1643 0001603  87.2468  60.1288 15.14768469    15

Suivez STARLINK-4453 en temps réel avec AllMySat

Download on the App Store